Weather Roundup
Issued by NWS Chicago, IL

Home | Current Version | Previous Version | Text Only | Print | Product List | Glossary Off
Versions: 1 2 3 4 5 6 7 8 9 10 11 12 13 14 15 16 17 18 19 20 21 22 23 24 25 26 27 28 29 30 31 32 33 34 35 36 37 38 39 40 41 42 43 44 45 46 47 48 49 50

100
NZUS59 KLOT 111608
HRRLOT

CHICAGO AREA WEATHER ROUNDUP
NATIONAL WEATHER SERVICE CHICAGO/ROMEOVILLE IL
1000 AM CST MON DEC 11 2017

NOTE: "FAIR" INDICATES FEW OR NO CLOUDS BELOW 12,000 FEET WITH NO
SIGNIFICANT WEATHER AND/OR OBSTRUCTIONS TO VISIBILITY.

* THESE STATIONS ARE NOT UNDER NWS QUALITY CONTROL. THEY ALSO MAY NOT
  REPORT WEATHER SUCH AS PRECIPITATION OR FOG.

ILZ005-006-012>014-019>023-111700-
NORTHEAST ILLINOIS

CITY           SKY/WX    TMP DP  RH WIND       PRES   REMARKS
OHARE          CLOUDY    32  22  66 S13       29.85F WCI  22
MIDWAY         PTSUNNY   32  23  69 S10G21    29.86F WCI  24
AURORA         CLOUDY    31  25  78 SE12      29.82F WCI  22
LANSING*       CLOUDY    31  25  78 S12       29.89F WCI  22
WAUKEGAN       CLOUDY    30  23  75 S9        29.83F WCI  22
DUPAGE AIRPORT CLOUDY    30  24  78 S14       29.82F HAZE    WCI  19
WHEELING       MOSUNNY   32  24  72 S12       29.86F WCI  23
KANKAKEE*      CLOUDY    32  24  71 SE9       29.88F WCI  24
MORRIS*        CLOUDY    33  25  75 S10       29.83F WCI  24
LEWIS AIRPORT* CLOUDY    31  25  78 S12       29.85F WCI  22
NORTHERLY ISL    N/A     31  22  69 S10         N/A  WCI  22
$$

WIZ051-052-058>065-066-070>072-111700-
SOUTHEAST WISCONSIN

CITY           SKY/WX    TMP DP  RH WIND       PRES   REMARKS
MILWAUKEE      CLOUDY    29  24  82 S10G17    29.83F WCI  20
KENOSHA*       CLOUDY    30  23  75 S9        29.83F WCI  22
RACINE*        CLOUDY    29  23  78 S8        29.85F WCI  21
BURLINGTON     MOSUNNY   37  34  90 S6        29.81F
WAUKESHA       CLOUDY    23  19  86 S6        29.82F WCI  16
WEST BEND      CLOUDY    27  23  86 S5        29.81F WCI  21
$$

INZ001>003-010>013-019-020-111700-
NORTHWEST INDIANA

CITY           SKY/WX    TMP DP  RH WIND       PRES   REMARKS
GARY*          PTSUNNY   32  21  64 S10       29.90F WCI  24
MICHIGAN CITY* NOT AVBL
RENSSELAER*    NOT AVBL
VALPARAISO     CLOUDY    31  23  72 S10       29.90F WCI  22
$$

LMZ740>746-111700-
SOUTHERN LAKE MICHIGAN

STATION/POSITION TIME  SKY/WX   TEMP WIND        PRES    VSBY
                                AIR  DIR/SP/G
                 (UTC)          (F)  (DEG/KT/KT) (MB)    (MI)
HARRISON CRIB    1540            31  190/ 17/ 19   N/A
BURNHAM HARBOR   1600            31  170/  7/ 13   N/A
CALUMET HARBOR   1542            30  160/  9/ 12 1011.4F
BURNS HARBOR     1540            30  180/ 10/ 15 1013.5F
MICHIGAN CITY    1540            29  160/ 13/ 16   N/A
$$

ABBREVIATIONS USED IN REMARKS
   TC - TEMPERATURE IN CELSIUS
  WCI - WIND CHILL INDEX
   HX - HEAT INDEX
  VSB - VISIBILITY
$$




USA.gov is the U.S. government's official web portal to all federal, state and local government web resources and services.